Regional Weather Roundup
Issued by NWS

Home | Current Version | Previous Version | Text Only | Print | Product List | Glossary Off
Versions: 1 2 3 4 5 6 7 8 9 10 11 12 13 14 15 16 17 18 19 20 21 22 23 24 25 26 27 28 29 30 31 32 33 34 35 36 37 38 39 40 41 42 43 44 45 46 47 48 49 50

000
ASUS43 KIND 262359
RWRIN

WEATHER ROUNDUP FOR INDIANA
NATIONAL WEATHER SERVICE INDIANAPOLIS IN
700 PM EST WED NOV 26 2014

NOTE: "FAIR" INDICATES FEW OR NO CLOUDS BELOW 12,000 FEET WITH NO
SIGNIFICANT WEATHER AND/OR OBSTRUCTIONS TO VISIBILITY.

* - STATION DOES NOT REPORT WEATHER SUCH AS PRECIPITATION OR FOG.

+ - STATION NOT QUALITY CONTROLLED BY THE NATIONAL WEATHER SERVICE.
    USE DATA WITH CAUTION...ESPECIALLY DEWPOINT AND RELATIVE
    HUMIDITY OBSERVATIONS.

INZ001>003-010>013-019-020-270100-
NORTHWEST INDIANA

CITY           SKY/WX    TMP DP  RH WIND       PRES   REMARKS
VALPARAISO     NOT AVBL

$$

LMZ046-743>745-270100-
SOUTHERN LAKE MICHIGAN

STATION/POSITION TIME  TEMP WIND        PRES
                       AIR  DIR/SP/G
                 (UTC) (F)  (DEG/KT/KT) (MB)
MICHIGAN CITY    2300   28   60/  7/  8   N/A

$$

INZ004-005-014>016-021>024-270100-
NORTH CENTRAL INDIANA

CITY           SKY/WX    TMP DP  RH WIND       PRES   REMARKS
ELKHART        CLOUDY    28  19  69 CALM      30.11S
GOSHEN         CLOUDY    28  20  71 NE3       30.09S
6HR MIN TEMP:  28; 6HR MAX TEMP:  29;

SOUTH BEND     CLOUDY    28  20  71 NE6       30.11S WCI  22
6HR MIN TEMP:  28; 6HR MAX TEMP:  29;


$$

INZ006>009-017-018-025>027-270100-
NORTHEAST INDIANA

CITY           SKY/WX    TMP DP  RH WIND       PRES   REMARKS
ANGOLA *+      CLOUDY    27  12  54 N3        30.06F
FORT WAYNE     CLOUDY    29  20  69 E3        30.09S
6HR MIN TEMP:  28; 6HR MAX TEMP:  29;


$$

INZ028-029-035-036-043>045-051>053-270100-
WEST CENTRAL INDIANA

CITY           SKY/WX    TMP DP  RH WIND       PRES   REMARKS
GREENCASTLE +  MOCLDY    32  25  74 N3        30.06R
LAFAYETTE      PTCLDY    26  21  81 NE7       30.09R WCI  18
6HR MIN TEMP:  26; 6HR MAX TEMP:  31;

TERRE HAUTE    CLOUDY    33  25  72 N5        30.06S WCI  29
6HR MIN TEMP:  30; 6HR MAX TEMP:  36;


$$

INZ030>032-037>040-046>048-054>057-064-065-270100-
CENTRAL INDIANA

CITY           SKY/WX    TMP DP  RH WIND       PRES   REMARKS
COLUMBUS       MOCLDY    30  28  93 NE7       30.06R WCI  23
INDIANAPOLIS   CLOUDY    31  23  72 NE8       30.05R WCI  23
6HR MIN TEMP:  31; 6HR MAX TEMP:  34;

-EAGLE CREEK   MOCLDY    31  22  69 NE6       30.05S WCI  25
6HR MIN TEMP:  30; 6HR MAX TEMP:  34;

KOKOMO *+      CLOUDY    27  19  74 NE6       30.09R WCI  20
MT COMFORT *+  MOCLDY    28  23  80 NE5       30.06S WCI  23
SHELBYVILLE    MOCLDY    31  24  75 NE5       30.05S WCI  26
6HR MIN TEMP:  31; 6HR MAX TEMP:  36;


$$

INZ033-034-041-042-049-050-058-059-270100-
EAST CENTRAL INDIANA

CITY           SKY/WX    TMP DP  RH WIND       PRES   REMARKS
MUNCIE         CLOUDY    28  21  75 NE6       30.07S WCI  22
6HR MIN TEMP:  28; 6HR MAX TEMP:  30;


$$

INZ060-061-067>069-081>083-085>088-270100-
SOUTHWEST INDIANA

CITY           SKY/WX    TMP DP  RH WIND       PRES   REMARKS
EVANSVILLE     LGT RAIN  37  30  75 CALM      30.06R
6HR MIN TEMP:  37; 6HR MAX TEMP:  40; 6HR PCP: TRACE;

HUNTINGBURG *+ CLOUDY    37  28  70 N6        30.04R
6HR MIN TEMP:  36; 6HR MAX TEMP:  39;


$$

INZ062-063-066-070>080-084-089>092-270100-
SOUTH CENTRAL AND SOUTHEAST INDIANA

CITY           SKY/WX    TMP DP  RH WIND       PRES   REMARKS
BLOOMINGTON    MOCLDY    32  26  78 CALM      30.04R
6HR MIN TEMP:  31; 6HR MAX TEMP:  38;


$$



USA.gov is the U.S. government's official web portal to all federal, state and local government web resources and services.